Overview Statistics Trail Chart Weather Telemetry Raw packets
 

This is the latest recevied weather packets stored in our database for station/object SV1JSO-13. If no packets are shown the sender has not sent any weather packets the latest 10 day(s).

<< 36 37 38 39 40 41 42 >>
Time Temp. Humidity Pressure Rain* Wind** Luminosity Snow
1788417600 30° C 40% 1007.2 hPa 0 mm - 322 W/m² -
1788417300 29.44° C 41% 1007.2 hPa 0 mm - 308 W/m² -
1788417000 29.44° C 40% 1007.3 hPa 0 mm - 296 W/m² -
1788416700 30° C 39% 1007.2 hPa 0 mm - 281 W/m² -
1788416400 29.44° C 37% 1007.2 hPa 0 mm - 267 W/m² -
1788416100 30° C 37% 1007.2 hPa 0 mm - 253 W/m² -
1788415801 30° C 39% 1007.2 hPa 0 mm - 238 W/m² -
1788415500 29.44° C 41% 1007.3 hPa 0 mm - 220 W/m² -
1788415201 28.89° C 43% 1007.1 hPa 0 mm - 208 W/m² -
1788414900 28.89° C 44% 1007.1 hPa 0 mm - 194 W/m² -
1788414601 28.33° C 44% 1007.1 hPa 0 mm - 183 W/m² -
1788414301 28.33° C 44% 1007.1 hPa 0 mm - 175 W/m² -
1788414001 28.33° C 43% 1007.1 hPa 0 mm - 163 W/m² -
1788413700 28.33° C 43% 1007.1 hPa 0 mm - 154 W/m² -
1788413400 28.33° C 43% 1007.2 hPa 0 mm - 144 W/m² -
1788413100 28.89° C 41% 1007 hPa 0 mm - 125 W/m² -
1788412800 28.89° C 39% 1007.1 hPa 0 mm - 118 W/m² -
1788412500 28.89° C 39% 1007.3 hPa 0 mm - 108 W/m² -
1788412200 28.89° C 39% 1007.2 hPa 0 mm - 101 W/m² -
1788411900 28.33° C 39% 1007.2 hPa 0 mm - 87 W/m² -
1788411600 28.33° C 38% 1007.1 hPa 0 mm - 78 W/m² -
1788411300 28.89° C 38% 1007.2 hPa 0 mm - 72 W/m² -
1788411000 28.89° C 37% 1007.2 hPa 0 mm - 63 W/m² -
1788410700 28.89° C 37% 1007.1 hPa 0 mm - 53 W/m² -
1788410400 28.89° C 36% 1007.2 hPa 0 mm - 44 W/m² -

* Rain latest hour (hover to see other rain measurements)
** Current wind speed in m/s (hover to see current wind gust speed)